Zurück zum Katalog

DELTA 1 DEB

AktivSSO
NORAD 21356·DEBRIS·🇺🇸 United States

Gestartet Jun 12, 1975 von Vandenberg Space Force Base

Loading…

Nächste Überflüge (nächste 24 Stunden)

TLE

AktuellSource: Space-Track

Epoche: Sep 13, 2026, 18:01 UTC

1 21356U 75052CA  26256.75120803  .00000052  00000-0  19131-3 0  9998
2 21356  99.7205 169.9196 0093642  69.6333 357.0593 13.30801859713984

Verfolge DELTA 1 DEB in Echtzeit mit AllMySat

Download on the App Store